Find Starlink 5553

NORAD ID: 56333 Int'l Des: 2023-058 Owner: SPXS Country: US Constellation: starlink operational
LEOCIRCULARRETROGRADESSO

当前视图

正在加载3D地球...

About Starlink 5553

Starlink 5553 (NORAD 56333) is a starlink constellation satellite (v1.5) launched Apr 27, 2023 by SPXS of US. It operates in LEO, CIRCULAR, RETROGRADE, SSO orbit with a mass of 300.00 kg.

关于 Starlink 5553

正在加载描述...

即将过境

Passes for default location (London). Set your location on the main map for personalized predictions.

高度历史

Loading altitude history...

两行轨道根数

1 56333U 23058S 26171.43069860 .00017162 00000-0 11928-2 0 9991
2 56333 97.3349 171.3560 0002178 82.0273 278.1202 15.05577094173657
Epoch: Jun 20, 2026 • Age: 20 hours

当前状态

高度 576.3 km
速度 7.57 km/s
星下点 -66.22°S, 32.78°W
发射日期 Apr 27, 2023
运行时间 3.1 years
类型 internet

技术详情

分类 Payload
质量 300.00 kg
干质量 260.00 kg
总质量 300.00 kg
长度 0.20 m
直径 2.80 m
跨度 9.00 m
形状 Box + pan
制造商 SPXS
平台类型 Starlink
阶段状态 In Orbit
所有者/国家 SPXS/US

Most Searched